User: anonymous   Login
Location: Hepcat Sky Observatory
(29.9800°N, 95.6500°W)
Time: 20:39:42
(UTC-06:00)
Language:

Cosmos 2151 Rocket - Orbit

View from above orbital plane
View from above orbital plane
View from above satellite
View from above satellite

Ground track
Ground track

The orbit data is extracted from the following two-line orbital elements,

1 21423U 91042B   17350.50711337  .00000091  00000-0  90382-5 0  9998
2 21423  82.4927 151.0454 0018020  18.0578 342.1271 14.79717651429548
Epoch (UTC): 16 December 2017 12:10:14
Eccentricity: 0.0018020
inclination: 82.4927°
perigee height: 617 km
apogee height: 643 km
right ascension of ascending node: 151.0454°
argument of perigee: 18.0578°
revolutions per day: 14.79717651
mean anomaly at epoch: 342.1271°
orbit number at epoch: 42954

The dashed part of the orbit path shows where the satellite is in the earth's shadow,  

DLR